Theta_e
300 300 300 300 300 300 300 300 300 299 299 299 299 300 300 301 301 299 298 298 298 297 297 297 296 296 296 295 295 294 294 294 294 294 295 294 294 295 295 294 295 293
300 300 299 300 300 300 299 300 300 300 299 300 300 300 300 300 300 299 298 298 298 297 297 297 296 296 296 295 296 294 294 294 294 296 294 294 293 295 294 295 295 294
300 300 299 299 300 301 300 300 300 300 299 300 300 299 299 299 299 298 298 298 297 297 297 297 296 296 295 295 295 295 294 294 294 295 294 294 294 293 294 294 294 294
300 300 300 300 301 301 302 300 299 299 299 299 299 299 299 299 298 298 298 296 296 297 297 296 296 296 295 295 295 294 294 294 295 295 294 294 294 294 293 294 293 293
301 301 300 300 300 301 300 300 299 300 299 299 300 300 298 298 298 297 297 297 297 297 297 296 296 296 295 295 294 294 294 294 294 294 293 293 294 294 293 293 293 292
299 300 300 300 300 299 299 299 299 300 300 299 299 299 299 298 298 298 298 297 297 297 297 297 296 296 295 295 294 294 294 294 294 294 293 293 293 294 294 293 292 292
300 300 300 299 299 299 298 299 299 299 300 300 300 299 299 298 298 297 298 298 297 297 296 296 296 296 296 295 294 294 294 294 294 294 293 293 293 293 294 293 292 292
300 300 300 299 298 298 298 298 299 299 300 299 299 299 299 298 298 298 298 298 297 297 297 296 296 296 296 295 294 294 294 294 294 293 293 293 293 292 293 293 292 292
299 299 299 299 298 298 298 298 298 299 299 299 299 299 299 298 298 298 298 297 297 297 296 296 296 296 296 295 295 294 294 294 294 293 293 293 292 293 293 293 292 292
298 299 299 298 298 298 298 299 299 299 299 298 298 298 298 299 298 298 297 297 296 296 296 296 296 296 295 295 295 294 294 294 294 294 293 293 293 293 293 293 292 292
298 298 298 298 298 299 299 299 299 299 299 298 298 298 298 298 298 297 297 296 296 296 296 296 296 296 295 295 295 295 294 294 294 294 294 293 293 293 292 293 293 292
298 298 298 298 298 299 299 299 299 299 299 299 298 298 298 298 298 298 296 296 296 296 296 296 297 296 295 295 295 295 294 294 294 294 294 293 293 293 293 293 293 293
298 299 299 299 299 299 299 299 299 299 299 298 298 298 298 298 298 297 297 296 296 297 296 296 296 296 296 295 295 295 294 293 293 293 293 293 293 293 293 293 293 293
298 299 299 299 299 299 299 298 298 298 298 298 298 297 297 297 297 297 297 297 296 296 296 296 296 296 296 295 295 295 294 294 293 293 293 293 293 293 293 292 292 292
299 299 299 299 298 298 297 298 298 298 298 298 297 297 297 297 297 297 297 297 296 296 296 296 295 295 296 295 295 295 294 294 294 293 293 293 293 292 292 292 292 292
299 298 298 298 298 297 297 297 297 297 297 297 296 296 296 296 296 296 296 296 296 296 296 295 295 295 293 291 292 295 295 294 294 294 294 293 293 292 292 292 292 292
297 297 297 297 297 297 297 297 297 297 296 296 296 296 295 295 295 295 295 295 295 295 295 295 295 295 291 292 292 292 293 295 294 294 294 293 293 292 293 293 293 293
297 297 296 296 297 296 296 296 296 295 295 295 295 295 295 295 294 294 294 294 295 294 294 295 295 292 292 292 292 292 291 293 294 294 294 293 293 293 293 293 293 294
296 296 296 296 296 296 296 296 295 295 294 294 294 295 295 294 294 294 294 294 294 293 293 294 294 292 292 292 292 292 292 291 293 294 294 294 294 293 293 293 293 293
296 296 295 295 296 296 296 295 295 294 295 295 295 294 294 294 294 294 294 294 293 293 293 294 294 292 292 292 292 291 292 291 293 293 294 294 294 294 294 293 293 293
296 295 295 295 295 295 295 294 294 294 294 294 294 294 294 294 294 294 294 294 294 293 293 293 294 291 292 292 292 292 292 291 293 293 294 294 294 294 294 294 294 294
295 295 295 295 295 295 294 294 294 294 294 294 294 294 294 294 293 293 293 293 294 293 293 292 293 291 291 291 291 292 292 292 292 293 293 294 294 294 294 294 294 294
295 295 295 295 295 294 294 294 294 294 294 294 293 293 293 293 293 293 293 293 293 293 293 292 293 292 291 291 291 291 291 292 292 292 293 293 293 294 294 294 294 294
296 295 295 294 294 294 294 294 294 294 294 294 293 293 293 293 293 293 294 293 293 292 293 292 293 292 290 291 291 291 290 292 292 292 292 293 293 294 294 294 293 289
295 295 294 294 294 294 294 294 294 294 294 294 294 294 293 293 293 293 293 293 293 293 289 290 292 291 290 290 290 290 290 291 291 292 292 292 292 293 293 293 293 290
295 294 294 293 293 293 294 293 294 293 293 293 293 293 293 293 292 292 291 292 293 292 292 292 291 292 291 290 290 290 290 291 292 291 291 291 292 292 292 292 292 292
Wind_Speed
6 6 6 6 6 6 7 6 6 6 6 6 6 6 6 6 5 5 6 6 6 6 6 6 6 6 6 6 7 6 6 6 6 6 5 5 6 6 6 7 6 6
8 7 6 6 6 6 7 7 7 6 7 7 7 6 6 6 6 5 6 6 6 7 6 6 6 7 6 6 7 7 6 7 7 5 6 7 7 7 8 8 8 7
7 7 8 8 8 9 8 7 7 7 7 7 6 6 6 5 6 6 6 6 6 7 7 6 6 7 7 7 7 7 7 8 8 7 7 8 8 8 7 7 7 8
8 8 7 8 8 8 7 6 7 7 7 7 8 7 5 5 5 7 6 7 7 7 7 7 7 7 7 7 7 7 8 8 8 7 7 7 7 8 8 7 7 7
7 7 8 8 7 7 6 7 8 8 8 8 7 7 6 6 6 6 7 7 7 7 7 7 7 7 7 6 7 7 7 7 7 7 7 8 8 7 7 7 8 9
7 8 7 7 7 7 7 8 9 8 8 8 9 7 7 7 7 7 8 8 7 7 7 7 7 7 7 7 6 7 7 7 7 8 8 9 8 8 6 7 8 9
8 7 8 7 7 8 8 9 9 8 8 8 6 7 7 8 8 9 9 8 8 7 7 7 7 7 6 6 7 7 7 8 7 8 9 8 8 9 8 8 9 10
8 7 6 6 7 7 9 9 9 9 8 7 8 9 7 9 9 8 8 8 8 9 8 8 8 8 7 6 7 8 8 6 7 8 9 10 8 10 9 8 8 10
7 7 7 8 8 8 9 9 9 9 8 8 9 8 8 8 8 8 9 9 9 9 9 9 9 9 8 8 8 9 9 8 8 9 10 10 10 11 10 9 9 10
8 8 8 8 8 9 10 10 9 9 8 9 9 8 9 8 8 9 8 9 9 9 10 9 9 9 9 9 10 10 10 11 10 10 10 11 11 11 10 10 11 10
9 9 9 9 10 9 10 10 10 9 8 9 9 9 10 8 8 8 9 9 9 10 10 10 10 10 10 10 10 10 11 10 10 10 11 11 11 11 11 10 11 12
10 9 10 11 10 10 10 10 9 9 9 8 9 11 10 9 9 8 8 10 10 10 11 11 10 10 11 11 11 10 10 10 11 11 11 11 11 11 11 11 11 12
9 10 9 9 9 10 8 8 9 9 9 10 9 10 9 9 10 10 9 10 11 10 11 11 11 10 10 11 11 11 11 11 11 11 12 11 11 12 12 12 12 12
10 9 9 9 9 8 9 10 9 9 9 9 8 9 10 10 10 10 10 9 10 10 10 10 10 10 11 11 11 11 11 11 11 11 11 11 11 12 12 12 13 13
9 7 7 8 8 9 9 10 10 9 9 9 8 9 8 10 10 9 10 10 10 11 11 10 10 11 10 10 11 12 12 12 12 12 12 12 11 11 12 12 12 13
8 7 8 8 8 9 10 9 9 9 8 9 10 10 10 9 9 10 11 11 11 11 11 10 10 9 13 18 16 11 11 10 10 11 12 12 11 11 12 13 13 12
8 8 7 9 10 9 9 9 10 8 8 10 10 10 10 10 9 11 11 11 12 11 12 11 10 11 19 19 21 21 14 11 11 12 11 12 12 12 12 11 11 13
9 9 9 11 10 10 10 9 8 9 10 10 10 11 11 9 10 12 12 11 10 11 13 12 11 16 21 21 18 16 20 14 11 11 10 11 11 12 11 11 11 10
9 9 10 11 11 10 9 8 10 10 11 10 12 11 9 10 12 11 12 11 11 13 13 13 12 19 21 21 22 16 16 20 12 12 11 12 13 12 12 12 10 10
9 9 10 11 11 10 10 10 10 11 11 10 9 9 11 11 12 13 12 12 12 12 12 12 13 18 21 20 20 22 15 18 14 14 12 13 14 13 12 13 13 11
10 10 11 11 11 10 10 11 11 11 12 11 9 10 11 10 11 12 11 11 12 12 12 12 12 20 21 20 20 22 13 19 14 13 13 13 14 14 15 14 14 12
11 11 11 11 11 11 10 11 11 11 12 11 10 9 10 10 11 11 13 13 13 13 12 14 13 20 22 22 20 18 14 14 14 15 15 14 14 15 15 13 13 13
10 11 11 10 11 11 11 11 11 12 11 8 9 10 11 11 11 11 10 11 13 12 13 14 13 18 22 23 20 21 14 13 14 14 14 15 15 14 13 13 13 13
9 10 11 11 10 11 12 11 11 10 11 8 10 11 11 11 11 11 10 11 12 14 12 14 14 16 20 21 21 19 16 14 13 13 15 14 14 13 11 11 15 21
10 10 11 12 12 12 10 12 12 11 10 9 10 10 11 10 11 12 12 11 12 14 16 17 16 17 19 20 20 18 15 13 13 13 14 14 13 13 11 12 13 16
8 9 10 11 13 12 11 11 11 10 11 11 11 10 11 10 11 11 14 12 11 13 12 13 16 16 17 19 20 19 20 14 12 13 16 15 14 13 12 12 13 12
Wind_Direction
225 219 222 221 227 231 239 240 238 240 245 247 248 251 244 250 225 221 231 232 229 231 226 222 220 218 216 214 212 218 228 231 237 236 226 225 233 227 227 225 226 234
231 224 225 227 232 226 230 230 237 237 245 242 242 250 253 249 242 231 233 233 230 231 230 225 223 222 219 221 211 215 225 224 229 219 225 226 235 227 231 228 227 227
235 227 224 224 228 227 223 220 224 233 239 244 245 242 247 239 247 239 236 235 236 234 227 225 224 224 222 223 217 218 225 226 228 223 223 230 229 231 233 227 226 219
240 235 236 236 238 239 231 222 222 228 230 237 236 235 229 234 238 244 240 237 239 237 230 224 223 225 221 220 218 228 226 227 229 225 227 231 229 229 232 229 230 226
251 244 239 245 247 247 243 235 234 229 223 228 237 232 231 232 232 236 238 235 232 239 232 226 223 224 219 221 217 231 225 229 222 216 228 235 229 222 225 222 227 230
247 243 245 243 245 246 242 241 242 238 234 231 230 229 229 227 231 234 235 236 232 234 236 233 228 224 216 222 219 229 231 230 225 212 226 233 234 224 217 215 224 230
243 238 236 236 243 240 246 250 250 247 244 241 237 230 225 227 228 231 232 233 235 230 233 232 230 228 217 217 223 231 230 232 231 222 229 237 233 233 221 218 225 230
241 238 235 232 235 240 241 246 247 245 245 246 241 242 225 230 231 229 228 229 230 231 229 231 232 231 224 219 225 229 231 223 228 227 233 238 233 238 228 221 222 231
242 241 235 232 233 237 237 238 242 244 241 241 246 248 236 232 232 229 228 227 230 231 230 229 226 227 223 221 225 226 229 227 221 226 230 233 232 235 231 224 226 229
246 245 239 237 234 232 234 233 231 237 230 234 240 244 244 238 230 233 231 227 230 231 229 228 225 223 221 219 225 226 228 231 227 224 228 232 234 236 231 223 226 233
244 239 238 237 235 237 235 234 233 231 227 227 231 236 236 239 235 226 231 229 227 228 228 226 226 223 224 224 222 223 227 228 227 227 227 229 231 233 232 227 227 229
247 243 241 242 241 242 239 236 235 231 232 228 223 232 231 229 230 226 219 231 230 229 229 231 228 224 226 227 225 222 224 227 229 228 229 229 230 230 228 225 228 231
245 240 239 242 240 242 244 244 240 237 232 235 225 228 229 228 225 229 227 227 235 232 231 230 228 224 225 227 228 226 224 225 226 227 229 228 228 227 226 226 226 230
245 240 241 243 246 247 247 247 246 243 238 238 235 233 233 234 234 227 231 223 232 233 235 232 230 227 223 224 225 224 223 224 224 225 226 227 228 226 225 224 225 227
247 246 248 255 253 252 251 247 245 244 245 243 236 240 237 240 240 240 241 236 229 230 234 229 230 230 220 216 219 221 221 225 225 225 225 228 229 227 225 225 225 226
257 263 263 260 257 252 250 250 249 248 246 246 246 244 244 240 238 238 237 239 238 232 225 223 227 226 228 224 223 220 217 219 221 226 225 226 229 230 229 225 226 224
275 273 272 267 261 259 260 257 258 255 253 251 249 245 243 242 236 244 240 236 235 236 234 228 223 230 233 229 228 224 227 226 222 226 223 225 227 228 232 227 225 226
269 270 269 267 264 261 259 259 259 259 259 254 251 251 245 240 244 242 242 241 237 238 241 241 241 238 234 229 222 215 223 227 228 228 221 225 227 228 232 231 230 227
264 264 266 268 266 265 264 265 263 261 259 254 249 248 250 244 246 243 241 240 235 239 240 240 244 249 242 232 227 213 209 222 234 231 226 227 228 228 227 227 225 227
272 269 269 268 271 271 270 268 264 259 259 258 256 255 252 251 250 248 245 242 238 238 242 246 245 256 252 244 236 230 210 214 230 235 233 230 227 225 223 223 221 224
276 270 270 271 271 271 270 267 264 264 261 258 255 253 254 251 251 253 245 243 247 244 246 246 248 256 257 251 243 237 212 219 230 234 236 234 229 225 225 223 223 223
274 273 270 272 271 269 266 267 264 259 261 260 264 259 253 251 255 250 253 252 248 246 246 249 248 252 255 252 245 238 215 232 231 235 234 234 232 227 224 222 222 224
272 274 272 270 272 272 269 266 265 265 263 259 262 256 257 253 251 245 243 248 250 243 245 251 250 248 250 251 244 238 225 232 232 233 235 233 235 230 224 222 218 217
276 276 278 275 273 270 270 269 266 267 267 259 264 268 260 253 253 255 246 243 245 249 240 254 254 248 249 252 245 235 224 231 232 233 236 234 239 234 226 226 223 222
288 284 281 280 277 274 270 274 272 271 270 269 264 259 260 261 261 263 261 251 245 249 250 251 259 257 249 251 248 237 225 229 233 236 240 237 236 239 229 227 232 227
285 279 277 277 281 278 273 274 278 277 273 271 267 264 268 262 260 259 262 259 252 256 254 246 252 257 251 246 248 242 229 226 230 233 237 238 234 237 236 227 225 228